Volver al catálogo

PRAETORIAN SDA_514

ActivoPO
NORAD 100072·PAYLOAD·🇺🇸 United States

Lanzado Jul 16, 2026 desde Vandenberg Space Force Base

Loading…

Próximos Pases (próximas 24 horas)

TLE

ActualizadoSource: Space-Track

Época: Sep 14, 2026, 16:52 UTC

1 A0072U 26163P   26257.70306812  .00000148  00000-0  11901-3 0  9994
2 A0072  81.4790 255.2853 0013718  58.1066 302.1424 13.85294275  8297

Sigue PRAETORIAN SDA_514 en tiempo real con AllMySat

Download on the App Store